Previsão horária em Bolshie Klyari

Hoje, 5 Março, Sexta-feira

Tempo Temperatura Precipitação Vento Pressão Humidade
00:00 -11°C° 0 mm 4 m/s 738 mmHg 91%
01:00 -10°C° 0 mm 3 m/s 738 mmHg 92%
02:00 -10°C° 0 mm 3 m/s 739 mmHg 92%
03:00 -10°C° 0 mm 2 m/s 739 mmHg 94%
04:00 -10°C° 0 mm 2 m/s 739 mmHg 94%
05:00 -10°C° 0 mm 2 m/s 739 mmHg 94%
06:00 -9°C° 0 mm 1 m/s 739 mmHg 94%
07:00 -10°C° 0 mm 2 m/s 740 mmHg 94%
08:00 -9°C° 0 mm 2 m/s 740 mmHg 94%
09:00 -9°C° 0 mm 2 m/s 741 mmHg 94%
10:00 -8°C° 0 mm 2 m/s 741 mmHg 92%
11:00 -8°C° 0 mm 2 m/s 742 mmHg 91%
12:00 -7°C° 0 mm 2 m/s 742 mmHg 90%
13:00 -7°C° 0 mm 2 m/s 743 mmHg 91%
14:00 -7°C° 0 mm 2 m/s 743 mmHg 91%
15:00 -7°C° 0 mm 2 m/s 744 mmHg 92%
16:00 -9°C° 0 mm 2 m/s 744 mmHg 91%
17:00 -10°C° 0 mm 2 m/s 745 mmHg 91%
18:00 -12°C° 0 mm 2 m/s 745 mmHg 91%
19:00 -13°C° 0 mm 3 m/s 746 mmHg 92%
20:00 -14°C° 0 mm 3 m/s 746 mmHg 93%
21:00 -14°C° 0 mm 3 m/s 747 mmHg 94%
22:00 -14°C° 0 mm 3 m/s 747 mmHg 94%
23:00 -15°C° 0 mm 3 m/s 747 mmHg 94%

Amanhã, 6 Março, Sábado

Tempo Temperatura Precipitação Vento Pressão Humidade
00:00 -15°C° 0 mm 3 m/s 747 mmHg 94%
01:00 -15°C° 0 mm 3 m/s 747 mmHg 94%
02:00 -14°C° 0 mm 3 m/s 747 mmHg 94%
03:00 -15°C° 0 mm 4 m/s 748 mmHg 95%
04:00 -15°C° 0 mm 4 m/s 748 mmHg 95%
05:00 -15°C° 0 mm 4 m/s 748 mmHg 95%
06:00 -16°C° 0 mm 4 m/s 748 mmHg 95%
07:00 -16°C° 0 mm 4 m/s 749 mmHg 94%
08:00 -16°C° 0 mm 4 m/s 749 mmHg 94%
09:00 -17°C° 0 mm 5 m/s 750 mmHg 93%
10:00 -16°C° 0 mm 4 m/s 750 mmHg 92%
11:00 -15°C° 0 mm 4 m/s 750 mmHg 91%
12:00 -15°C° 0 mm 4 m/s 750 mmHg 90%
13:00 -14°C° 0 mm 3 m/s 750 mmHg 90%
14:00 -13°C° 0 mm 3 m/s 750 mmHg 89%
15:00 -12°C° 0 mm 2 m/s 750 mmHg 89%
16:00 -14°C° 0 mm 2 m/s 750 mmHg 89%
17:00 -15°C° 0 mm 2 m/s 749 mmHg 89%
18:00 -17°C° 0 mm 2 m/s 749 mmHg 89%
19:00 -17°C° 0 mm 2 m/s 749 mmHg 90%
20:00 -17°C° 0 mm 2 m/s 749 mmHg 91%
21:00 -17°C° 0 mm 2 m/s 749 mmHg 92%
22:00 -17°C° 0 mm 2 m/s 749 mmHg 91%
23:00 -17°C° 0 mm 2 m/s 748 mmHg 91%

Depois de amanhã, 7 Março, Domingo

Tempo Temperatura Precipitação Vento Pressão Humidade
00:00 -17°C° 0 mm 2 m/s 748 mmHg 90%
01:00 -17°C° 0 mm 2 m/s 748 mmHg 92%
02:00 -18°C° 0 mm 2 m/s 748 mmHg 94%
03:00 -18°C° 0 mm 2 m/s 748 mmHg 96%
04:00 -18°C° 0 mm 2 m/s 748 mmHg 96%
05:00 -18°C° 0 mm 2 m/s 748 mmHg 96%
06:00 -18°C° 0 mm 2 m/s 747 mmHg 97%
07:00 -18°C° 0 mm 2 m/s 747 mmHg 96%
08:00 -17°C° 0 mm 2 m/s 747 mmHg 95%
09:00 -17°C° 0 mm 2 m/s 747 mmHg 95%
10:00 -16°C° 0 mm 2 m/s 747 mmHg 93%
11:00 -15°C° 0 mm 2 m/s 747 mmHg 92%
12:00 -14°C° 0 mm 2 m/s 746 mmHg 90%
13:00 -15°C° 0 mm 3 m/s 746 mmHg 90%
14:00 -14°C° 0 mm 3 m/s 745 mmHg 90%
15:00 -14°C° 0 mm 4 m/s 745 mmHg 90%
16:00 -14°C° 0 mm 5 m/s 744 mmHg 90%
17:00 -13°C° 0 mm 5 m/s 743 mmHg 90%
18:00 -12°C° 0 mm 6 m/s 743 mmHg 89%
19:00 -12°C° 0.2 mm 6 m/s 742 mmHg 91%
20:00 -12°C° 0.2 mm 7 m/s 741 mmHg 92%
21:00 -12°C° 0.2 mm 8 m/s 741 mmHg 93%
22:00 -12°C° 0.3 mm 8 m/s 739 mmHg 93%
23:00 -12°C° 0.3 mm 8 m/s 738 mmHg 93%

8 Março, Segunda-feira

Tempo Temperatura Precipitação Vento Pressão Humidade
00:00 -11°C° 0.3 mm 8 m/s 737 mmHg 93%
01:00 -11°C° 0.4 mm 8 m/s 736 mmHg 94%
02:00 -11°C° 0.4 mm 7 m/s 736 mmHg 94%
03:00 -9°C° 0.4 mm 7 m/s 735 mmHg 94%
04:00 -11°C° 0.3 mm 7 m/s 736 mmHg 91%
05:00 -12°C° 0.3 mm 8 m/s 736 mmHg 88%
06:00 -13°C° 0.3 mm 8 m/s 736 mmHg 85%
07:00 -13°C° 0 mm 7 m/s 737 mmHg 86%
08:00 -14°C° 0 mm 6 m/s 737 mmHg 87%
09:00 -14°C° 0 mm 5 m/s 738 mmHg 89%
10:00 -13°C° 0 mm 5 m/s 738 mmHg 87%
11:00 -12°C° 0 mm 6 m/s 739 mmHg 85%
12:00 -12°C° 0 mm 7 m/s 739 mmHg 83%
13:00 -11°C° 0 mm 7 m/s 739 mmHg 86%
14:00 -9°C° 0 mm 7 m/s 739 mmHg 88%
15:00 -9°C° 0 mm 7 m/s 738 mmHg 90%
16:00 -9°C° 0.3 mm 6 m/s 738 mmHg 92%
17:00 -9°C° 0.3 mm 6 m/s 737 mmHg 93%
18:00 -8°C° 0.3 mm 5 m/s 737 mmHg 94%
19:00 -10°C° 0.5 mm 5 m/s 737 mmHg 94%
20:00 -10°C° 0.5 mm 4 m/s 737 mmHg 94%
21:00 -10°C° 0.5 mm 3 m/s 737 mmHg 94%
22:00 -12°C° 0.2 mm 5 m/s 737 mmHg 94%
23:00 -12°C° 0.2 mm 6 m/s 737 mmHg 93%

9 Março, Terça-feira

Tempo Temperatura Precipitação Vento Pressão Humidade
00:00 -13°C° 0.2 mm 8 m/s 737 mmHg 93%
01:00 -15°C° 0.1 mm 8 m/s 738 mmHg 92%
02:00 -16°C° 0.1 mm 8 m/s 739 mmHg 92%
03:00 -17°C° 0.1 mm 8 m/s 740 mmHg 91%
04:00 -18°C° 0 mm 7 m/s 741 mmHg 92%
05:00 -18°C° 0 mm 6 m/s 742 mmHg 93%
06:00 -19°C° 0 mm 5 m/s 742 mmHg 94%
07:00 -19°C° 0 mm 5 m/s 743 mmHg 94%
08:00 -17°C° 0 mm 4 m/s 744 mmHg 94%
09:00 -17°C° 0 mm 4 m/s 745 mmHg 94%
10:00 -16°C° 0 mm 4 m/s 745 mmHg 93%
11:00 -16°C° 0 mm 4 m/s 746 mmHg 92%
12:00 -14°C° 0 mm 3 m/s 746 mmHg 91%
13:00 -14°C° 0 mm 3 m/s 747 mmHg 91%
14:00 -13°C° 0 mm 3 m/s 747 mmHg 91%
15:00 -13°C° 0 mm 3 m/s 747 mmHg 91%
16:00 -14°C° 0.1 mm 3 m/s 747 mmHg 92%
17:00 -13°C° 0.1 mm 2 m/s 747 mmHg 94%
18:00 -14°C° 0.1 mm 2 m/s 747 mmHg 95%
19:00 -15°C° 0 mm 2 m/s 748 mmHg 95%
20:00 -15°C° 0 mm 2 m/s 748 mmHg 95%
21:00 -16°C° 0 mm 2 m/s 748 mmHg 95%
22:00 -16°C° 0 mm 2 m/s 748 mmHg 95%
23:00 -18°C° 0 mm 3 m/s 748 mmHg 95%

10 Março, Quarta-feira

Tempo Temperatura Precipitação Vento Pressão Humidade
00:00 -18°C° 0 mm 3 m/s 748 mmHg 96%
01:00 -19°C° 0 mm 3 m/s 748 mmHg 96%
02:00 -21°C° 0 mm 3 m/s 748 mmHg 96%
03:00 -22°C° 0 mm 3 m/s 748 mmHg 96%
04:00 -22°C° 0 mm 3 m/s 748 mmHg 97%
05:00 -23°C° 0 mm 3 m/s 749 mmHg 98%
06:00 -24°C° 0 mm 3 m/s 749 mmHg 98%
07:00 -24°C° 0 mm 4 m/s 749 mmHg 97%
08:00 -24°C° 0 mm 4 m/s 749 mmHg 96%
09:00 -24°C° 0 mm 5 m/s 749 mmHg 94%
10:00 -22°C° 0 mm 5 m/s 750 mmHg 93%
11:00 -22°C° 0 mm 5 m/s 750 mmHg 92%
12:00 -22°C° 0 mm 6 m/s 750 mmHg 91%
13:00 -22°C° 0 mm 6 m/s 750 mmHg 91%
14:00 -22°C° 0 mm 6 m/s 751 mmHg 91%
15:00 -23°C° 0 mm 6 m/s 751 mmHg 91%
16:00 -24°C° 0 mm 5 m/s 751 mmHg 92%
17:00 -25°C° 0 mm 5 m/s 751 mmHg 93%
18:00 -26°C° 0 mm 4 m/s 752 mmHg 95%
19:00 -27°C° 0 mm 4 m/s 752 mmHg 95%
20:00 -29°C° 0 mm 4 m/s 753 mmHg 95%
21:00 -31°C° 0 mm 4 m/s 753 mmHg 95%
22:00 -31°C° 0 mm 4 m/s 753 mmHg 96%
23:00 -31°C° 0 mm 3 m/s 753 mmHg 96%
Mostrar mais